Regional Weather Roundup
Issued by NWS

Home | Current Version | Previous Version | Graphics & Text | Print | Product List | Glossary Off
Versions: 1 2 3 4 5 6 7 8 9 10 11 12 13 14 15 16 17 18 19 20 21 22 23 24 25 26 27 28 29 30 31 32 33 34 35 36 37 38 39 40 41 42 43 44 45 46 47 48 49 50

000
ASUS43 KLSX 240059
RWRMO

WEATHER SUMMARY FOR MISSOURI
NATIONAL WEATHER SERVICE SPRINGFIELD MO
800 PM CDT WED JUL 23 2014

NOTE: "FAIR" INDICATES FEW OR NO CLOUDS BELOW 12,000 FEET WITH NO
       SIGNIFICANT WEATHER AND/OR OBSTRUCTIONS TO VISIBILITY.
       CURRENT SKY AND/OR WEATHER CONDITIONS ARE NOT AVAILABLE FOR
       CHILLICOTHE AND FARMINGTON.

MOZ001>031-035>038-043-044-053-054-240200-
...NORTHERN AND WESTERN MISSOURI...

CITY           SKY/WX    TMP DP  RH WIND       PRES   REMARKS
KANSAS CTY INT PTCLDY    81  64  56 NE9       30.11S
KANSAS C DTWN  CLEAR     83  62  49 NE12      30.09R
LEE`S SUMMIT   CLEAR     81  62  52 NE10      30.11R
ST JOSEPH      CLEAR     81  64  56 NE7       30.11R
CHILLICOTHE      N/A     80  61  52 NE8       30.13R
KIRKSVILLE     CLEAR     73  60  63 NE7       30.15R

$$
MOZ066>068-077>081-088>096-101>105-240200-
...SOUTHWEST MISSOURI...

CITY           SKY/WX    TMP DP  RH WIND       PRES   REMARKS
SPRINGFIELD    CLEAR     82  69  64 S10       30.07R
JOPLIN         PTCLDY    84  67  56 N8        30.06S

$$
MOZ032>034-039>042-045>050-055>058-069>072-240200-
...CENTRAL MISSOURI...

CITY           SKY/WX    TMP DP  RH WIND       PRES   REMARKS
COLUMBIA       CLEAR     79  63  57 NE10      30.11R
JEFFERSON CITY CLEAR     82  63  52 N6        30.08R
ROLLA          CLEAR     80  65  59 N10       30.07R
SEDALIA        CLEAR     80  64  58 NE8       30.10S
OSAGE BEACH    CLEAR     81  64  57 NE6       30.08R

$$
MOZ051-052-059>065-240200-
...EAST CENTRAL MISSOURI...

CITY           SKY/WX    TMP DP  RH WIND       PRES   REMARKS
ST LOUIS INTL  PTCLDY    79  62  56 N13       30.08R
SPIRIT OF STL  CLEAR     78  61  55 NE6       30.07R
ST CHARLES     CLEAR     74  62  66 N9        30.08R

$$
MOZ072>076-082>087-097>100-106>115-240200-
...SOUTH CENTRAL AND SOUTHEAST MISSOURI...

CITY           SKY/WX    TMP DP  RH WIND       PRES   REMARKS
CAPE GIRARDEAU CLOUDY    77  73  87 NW3       30.01R
FARMINGTON     MOCLDY    79  66  65 NE6       30.09R
POPLAR BLUFF   MOCLDY    75  68  78 NW3       30.02R
WEST PLAINS    PTCLDY    73  68  84 W3        30.09F

$$



USA.gov is the U.S. government's official web portal to all federal, state and local government web resources and services.